Погода в Новониколаевке

Россия / Красноярский край     55°47′12″N   96°11′12″E
темп.,
°C
ветер,
м/с
пор.,
м/с
влажн.,
%
обл.,
%
осадки,
мм/ч
давл.,
гПа
погр.,
м
17 мая, пн
пн1701:00+6ссз119749 0.4 101232
04:00+2сз118562 0.0 101310
07:00+6з127885 0.0 1013195
10:00+9зсз3559100 0.0 10121047
13:00+12зсз4546100 0.0 10111742
16:00+11зсз4655100 0.0 10121546
19:00+10зсз2563100 0.1 1012386
22:00+6з227782 0.0 101330
18 мая, вт
вт1801:00+5з117895 0.0 101216
04:00+4зюз117664 0.0 101218
07:00+8юз2463100 0.0 1011735
10:00+7вюв1279100 0.1 1009841
13:00+6вюв3693100 0.8 1006382
16:00+6в4897100 5.4 1001362
19:00+5всв61198100 11.9 998446
22:00+5ссв41096100 3.8 1001628
19 мая, ср
ср1901:00+3зсз239770 3.8 100697
04:00+1зюз1196100 0.0 100815
07:00+4юз1190100 0.0 1007135
10:00+8вюв1171100 0.0 1005586
13:00+10всв2252100 0.0 10031177
16:00+11в2247100 0.0 10031642
19:00+8ю2470100 0.1 1004239
22:00+4ююз2493100 0.1 100578
20 мая, чт
чт2001:00+3ю119699 0.1 100522
04:00+4ююв1295100 0.1 100473
07:00+2сз3698100 2.1 1006463
10:00+2ссз3899100 1.8 1007342
13:00+4с3895100 2.1 1007614
16:00+4с3897100 1.1 1008567
19:00+3ссз2898100 4.3 1010693
22:00+2ссз3898100 2.8 1011540
21 мая, пт
пт2101:00+2сз3799100 4.0 1011365
04:00+2сз3998100 2.0 1011446
07:00+3сз41096100 2.1 1013476
10:00+5зсз4788100 0.1 1014814
13:00+8сз4669100 0.1 10151165
16:00+9сз4763100 0.1 10151301
19:00+8зсз3875100 1.0 1016246
22:00+5з4109295 1.5 1018297